Weather History for Douglas, WY

Change the Weather History Date:

Friday, May 10, 2013

  Actual Average Record
Temperature  
Mean Temperature 54 °F 51 °F  
Max Temperature 73 °F 66 °F 85 °F (2012)
Min Temperature 35 °F 36 °F 25 °F (2006)
Degree Days  
Heating Degree Days 11 14  
Month to date heating degree days 172 155  
Since 1 July heating degree days 6938 7112  
Cooling Degree Days 0 0  
Month to date cooling degree days 0 0  
Year to date cooling degree days 0 0  
Growing Degree Days 3 (Base 50)    
Moisture  
Dew Point 35 °F    
Average Humidity 59    
Maximum Humidity 100    
Minimum Humidity 17    
Precipitation  
Precipitation 0.00 in 0.08 in 0.27 in (2002)
Month to date precipitation 0.20 0.81  
Year to date precipitation 3.02 3.96  
Sea Level Pressure  
Sea Level Pressure 30.18 in    
Wind  
Wind Speed 9 mph (North)    
Max Wind Speed 26 mph    
Max Gust Speed 32 mph    
Visibility 8 miles    
Events Fog    
T = Trace of Precipitation, MM = Missing Value Source: NWS Daily Summary

Daily Weather History Graph

Daily Weather History Graph

Search for Another Location

Airport:

Trip Planner

Search our weather history database for the weather conditions in past years. The results will help you decide how hot, cold, wet, or windy it might be!

Date:

Astronomy

May. 10, 2013 Rise Set
Actual Time 5:44 AM MDT 8:12 PM MDT
Civil Twilight 5:12 AM MDT 8:44 PM MDT
Nautical Twilight 4:32 AM MDT 9:24 PM MDT
Astronomical Twilight 3:47 AM MDT 10:09 PM MDT
Moon 6:09 AM MDT (5/10) 9:04 PM MDT (5/10)
Length of Visible Light 15h 32m
Length of Day
14h 28m
New Moon, 1% of the Moon is Illuminated
May 10
New Moon
May 17
First Quarter
May 24
Full
May 31
Last Quarter
Jun 8
New

Hourly Weather History & Observations

Time (MDT) Temp. Windchill Dew Point Humidity Pressure Visibility Wind Dir Wind Speed Gust Speed Precip Events Conditions
12:53 AM 42.1 °F 38.4 °F 39.9 °F 92% 30.13 in 10.0 mi SSE 5.8 mph - N/A   Clear
1:53 AM 39.0 °F - 37.9 °F 96% 30.13 in 10.0 mi Calm Calm - 0.01 in   Clear
2:53 AM 39.9 °F - 37.9 °F 93% 30.13 in 6.0 mi Calm Calm - N/A   Clear
2:59 AM 39.2 °F - 37.4 °F 93% 30.20 in 1.0 mi Calm Calm - N/A   Clear
3:09 AM 39.2 °F - 37.4 °F 93% 30.20 in 0.5 mi Calm Calm - N/A Fog Fog
3:24 AM 35.6 °F 30.7 °F 35.6 °F 100% 30.21 in 0.2 mi West 5.8 mph - N/A Fog Fog
3:53 AM 37.0 °F - 36.0 °F 96% 30.14 in 0.2 mi Calm Calm - N/A Fog Fog
4:53 AM 37.9 °F 32.7 °F 37.9 °F 100% 30.15 in 0.2 mi NNW 6.9 mph - N/A Fog Fog
7:01 AM 39.2 °F - - N/A% 30.22 in 1.2 mi Calm Calm - N/A   Mostly Cloudy
7:05 AM 39.2 °F - - N/A% 30.22 in 4.0 mi Calm Calm - N/A   Haze
7:18 AM 41.0 °F - - N/A% 30.23 in 10.0 mi Calm Calm - N/A   Partly Cloudy
7:53 AM 43.0 °F 38.2 °F 43.0 °F 100% 30.20 in 10.0 mi NW 8.1 mph - N/A   Clear
8:53 AM 52.0 °F - 44.1 °F 74% 30.17 in 10.0 mi WNW 13.8 mph - N/A   Clear
9:53 AM 59.0 °F - 43.0 °F 55% 30.15 in 10.0 mi NW 16.1 mph - N/A   Clear
11:53 AM 68.0 °F - 30.9 °F 25% 30.13 in 10.0 mi North 13.8 mph 26.5 mph 0.01 in   Mostly Cloudy
12:53 PM 69.1 °F - 28.9 °F 22% 30.13 in 10.0 mi North 10.4 mph 23.0 mph N/A   Mostly Cloudy
1:53 PM 70.0 °F - 30.0 °F 23% 30.14 in 10.0 mi NNW 16.1 mph 24.2 mph N/A   Mostly Cloudy
2:53 PM 70.0 °F - 28.9 °F 22% 30.13 in 10.0 mi NNW 11.5 mph 21.9 mph N/A   Partly Cloudy
3:53 PM 69.1 °F - 25.0 °F 19% 30.13 in 10.0 mi North 13.8 mph 21.9 mph N/A   Scattered Clouds
4:53 PM 71.1 °F - 24.1 °F 17% 30.12 in 10.0 mi NNE 9.2 mph 20.7 mph N/A   Mostly Cloudy
5:53 PM 69.1 °F - 26.1 °F 20% 30.14 in 10.0 mi NNE 20.7 mph 25.3 mph N/A   Overcast
6:53 PM 63.0 °F - 33.1 °F 33% 30.19 in 10.0 mi NE 17.3 mph 24.2 mph N/A   Mostly Cloudy
7:53 PM 57.9 °F - 37.0 °F 46% 30.22 in 10.0 mi NE 17.3 mph - N/A   Scattered Clouds
8:53 PM 55.9 °F - 39.0 °F 53% 30.25 in 10.0 mi Calm Calm - N/A   Overcast
9:53 PM 55.9 °F - 37.9 °F 51% 30.26 in 10.0 mi NNW 8.1 mph - N/A   Overcast
10:53 PM 54.0 °F - 39.0 °F 57% 30.27 in 10.0 mi NNE 5.8 mph - N/A   Overcast
11:53 PM 50.0 °F - 39.0 °F 66% 30.28 in 10.0 mi NNE 4.6 mph - N/A   Clear